Weather in Yegla

Russia / Novgorod Oblast     58°19′05″N   33°58′55″E
temp.,
°C
wind,
m/s
gust,
m/s
humid.,
%
clouds,
%
prec.,
mm/h
press.,
hPa
HPBL,
m
23 october, sat
sat2300:00+5sw7157233 0.0 9931274
03:00+6sw71577100 0.5 9931548
06:00+5wsw51188100 0.4 9941271
09:00+5sw388658 2.4 996715
12:00+6wsw597026 0.1 9981130
15:00+6wsw4877100 0.4 10001068
18:00+4w378898 0.3 1002638
21:00+3w2590100 0.5 1004626
24 october, sun
sun2400:00+4wnw368997 0.2 1006557
03:00+3nw5996100 0.6 1008594
06:00+1nw5119481 0.3 1011746
09:00+1nnw5107881 0.4 10151104
12:00+2nnw5974100 0.0 1018961
15:00+2nw587373 0.1 10201225
18:00+1nw487472 0.1 1023603
21:00−1wnw27885 0.1 1025225
25 october, mon
mon2500:00−2w25915 0.0 1026136
03:00−2wsw2589100 0.0 1026166
06:00−1sw3883100 0.0 1026354
09:00+1ssw41174100 0.0 1024479
12:00+3sw51481100 0.1 1022728
15:00+4sw51382100 0.1 1020665
18:00+3sw5138790 0.0 1020730
21:00+4wsw51285100 0.0 1019874
26 october, tue
tue2600:00+3wsw512879 0.0 1019566
03:00+2sw4129128 0.0 1019421
06:00+1sw41188100 0.0 1018381
09:00+2sw41283100 0.0 1017425
12:00+5sw41175100 0.0 1016533
15:00+5sw41075100 0.0 1015606
18:00+3sw31084100 0.0 1015358
21:00+3sw31185100 0.0 1014446
27 october, wed
wed2700:00+3sw41187100 0.0 1013442
03:00+3sw41187100 0.0 1011416
06:00+4sw41290100 0.8 1009506
09:00+4wsw41293100 1.7 1008585
12:00+6w51082100 0.3 10091131
15:00+6wsw51087100 0.3 1009879
18:00+6w5118498 0.1 10101087
21:00+7w71583100 0.2 10101535